Location: Table Mountain
(47.2500°N, 120.5778°W)
Time: 18:46:33
(UTC-07:00)

Vanguard 1 Rocket - All Passes

Search period start: 20 July 2018 00:00
Search period end: 30 July 2018 00:00
Orbit: 652 x 4225 km, 34.3° (Epoch: 20 July)

Date Brightness Start Highest point End Pass type
(mag) Time Alt. Az. Time Alt. Az. Time Alt. Az.
20 Jul - 06:01:32 10° S 06:15:40 19° SE 06:26:54 10° ESE daylight
20 Jul - 08:24:33 10° SW 08:43:56 37° SSE 08:55:49 10° E daylight
20 Jul - 10:54:43 10° WSW 11:11:24 45° S 11:20:23 10° ESE daylight
20 Jul - 13:26:28 10° W 13:36:41 30° SSW 13:42:49 10° SSE daylight
21 Jul - 04:56:22 10° SSE 05:02:53 12° SE 05:08:53 10° ESE visible
21 Jul - 07:11:42 10° SSW 07:31:00 32° SSE 07:44:11 10° E daylight
21 Jul - 09:39:58 10° WSW 09:59:14 45° S 10:09:58 10° ESE daylight
21 Jul - 12:11:44 10° WSW 12:25:43 40° SSW 12:33:23 10° SE daylight
21 Jul - 14:44:24 10° WSW 14:49:33 15° SW 14:53:29 10° S daylight
22 Jul - 06:00:26 10° S 06:17:56 25° SE 06:31:24 10° E daylight
22 Jul - 08:25:40 10° SW 08:46:31 43° SSE 08:59:06 10° E daylight
22 Jul - 10:56:44 10° WSW 11:14:07 47° S 11:23:27 10° ESE daylight
22 Jul - 13:29:07 10° W 13:39:14 27° SSW 13:45:28 10° SSE daylight
23 Jul - 04:51:49 10° SSE 05:04:58 17° SE 05:16:25 10° ESE visible
23 Jul - 07:12:17 10° SSW 07:33:24 37° SSE 07:47:37 10° E daylight
23 Jul - 09:41:42 10° WSW 10:01:53 49° S 10:13:05 10° ESE daylight
23 Jul - 12:14:05 10° W 12:28:21 38° SSW 12:36:16 10° SE daylight
23 Jul - 14:48:19 10° WSW 14:51:52 12° SW 14:54:50 10° SSW daylight
24 Jul - 06:00:16 10° SSW 06:20:08 30° SSE 06:35:15 10° E daylight
24 Jul - 08:27:04 10° SW 08:49:03 47° SSE 09:02:15 10° E daylight
24 Jul - 10:58:51 10° WSW 11:16:46 47° SSW 11:26:26 10° ESE daylight
24 Jul - 13:31:53 10° W 13:41:38 24° SW 13:47:54 10° S daylight
25 Jul - 04:50:10 10° S 05:06:59 22° SE 05:21:21 10° E visible
25 Jul - 07:13:16 10° SW 07:35:46 43° SSE 07:50:51 10° E daylight
25 Jul - 09:43:35 10° WSW 10:04:29 51° S 10:16:07 10° ESE daylight
25 Jul - 12:16:29 10° W 12:30:51 36° SSW 12:39:00 10° SE daylight
26 Jul - 03:43:51 10° SSE 03:54:11 14° SE 04:03:58 10° ESE visible
26 Jul - 06:00:42 10° SSW 06:22:18 36° SSE 06:38:42 10° E daylight
26 Jul - 08:28:42 10° WSW 08:51:33 51° S 09:05:19 10° ESE daylight
26 Jul - 11:01:02 10° W 11:19:20 46° SSW 11:29:20 10° SE daylight
26 Jul - 13:34:51 10° W 13:43:55 20° SW 13:50:02 10° S daylight
27 Jul - 04:49:43 10° S 05:08:55 28° SE 05:25:22 10° E visible
27 Jul - 07:14:35 10° SW 07:38:06 47° SSE 07:53:58 10° E daylight
27 Jul - 09:45:35 10° WSW 10:07:02 52° S 10:19:05 10° ESE daylight
27 Jul - 12:18:57 10° W 12:33:14 33° SW 12:41:35 10° SSE daylight
28 Jul - 03:41:10 10° SSE 03:55:56 19° SE 04:09:53 10° E visible
28 Jul - 06:01:36 10° SSW 06:24:25 41° SSE 06:41:55 10° E daylight
28 Jul - 08:30:30 10° WSW 08:54:01 54° S 09:08:18 10° ESE daylight
28 Jul - 11:03:16 10° W 11:21:47 44° SSW 11:32:07 10° SE daylight
28 Jul - 13:38:07 10° W 13:46:03 17° SW 13:51:46 10° SSW daylight
29 Jul - 02:41:26 10° SE 02:43:31 10° ESE 02:45:36 10° ESE visible
29 Jul - 04:50:02 10° SSW 05:10:48 33° SE 05:28:54 10° E visible
29 Jul - 07:16:10 10° SW 07:40:25 51° SSE 07:56:58 10° E daylight
29 Jul - 09:47:41 10° W 10:09:31 52° SSW 10:21:58 10° ESE daylight
29 Jul - 12:21:31 10° W 12:35:27 29° SW 12:43:58 10° SSE daylight
